This demonstration page uses our WeatherBlox Daily Observations layout. Learn more.

36.17497, -115.13722

Hourly Observations for March 20, 2018

Temp ( °F °C ) Dew Point ( °F °C ) Humidity (%) Winds ( mph kmh ) Pressure ( in mb ) Visibility ( mi km ) Precip ( " mm )
12:53 am 00:53 Clear 51 10.6 21 -6.1 31 31 NW 6 9 30.12 1020 10 16.0934 0 0
1:53 am 01:53 Clear 49 9.4 21 -6.1 33 33 SSW 5 7 30.12 1020 10 16.0934 0 0
2:53 am 02:53 Clear 48 8.9 21 -6.1 34 34 Calm 30.11 1020 10 16.0934 0 0
3:53 am 03:53 Clear 46 7.8 22 -5.6 38 38 N 6 9 30.1 1019 10 16.0934 0 0
4:53 am 04:53 Clear 45 7.2 22 -5.6 40 40 NNW 6 9 30.11 1020 10 16.0934 0 0
5:53 am 05:53 Clear 46 7.8 23 -5 40 40 NW 3 6 30.1 1019 10 16.0934 0 0
6:53 am 06:53 Sunny 46 7.8 24 -4.4 42 42 W 3 6 30.12 1020 10 16.0934 0 0
7:53 am 07:53 Sunny 50 10 22 -5.6 33 33 Calm 30.12 1020 10 16.0934 0 0
8:53 am 08:53 Sunny 53 11.7 19 -7.2 26 26 SW 5 7 30.14 1021 10 16.0934 0 0
9:53 am 09:53 Sunny 55 12.8 18 -7.8 23 23 Calm 30.14 1021 10 16.0934 0 0
10:53 am 10:53 Sunny 56 13.3 18 -7.8 22 22 S 5 7 30.14 1021 10 16.0934 0 0
11:53 am 11:53 Sunny 59 15 17 -8.3 19 19 ESE 6 9 30.13 1020 10 16.0934 0 0
12:53 pm 12:53 Mostly Cloudy 63 17.2 16 -8.9 16 16 Calm 30.12 1020 10 16.0934 0 0
1:53 pm 13:53 Mostly Sunny 64 17.8 15 -9.4 15 15 VRB 3 6 30.08 1019 10 16.0934 0 0
2:53 pm 14:53 Partly Cloudy 65 18.3 13 -10.6 13 13 SSE 8 13 30.05 1018 10 16.0934 0 0
3:53 pm 15:53 Mostly Sunny 66 18.9 14 -10 13 13 ESE 3 6 30.03 1017 10 16.0934 0 0
4:53 pm 16:53 Mostly Sunny 65 18.3 14 -10 14 14 S 8 13 30.02 1017 10 16.0934 0 0
5:53 pm 17:53 Sunny 65 18.3 15 -9.4 14 14 S 3 6 30.01 1016 10 16.0934 0 0
6:53 pm 18:53 Clear 63 17.2 16 -8.9 16 16 E 5 7 29.99 1016 10 16.0934 0 0
7:53 pm 19:53 Clear 63 17.2 17 -8.3 17 17 SE 6 9 30.01 1016 10 16.0934 0 0
8:53 pm 20:53 Partly Cloudy 62 16.7 17 -8.3 17 17 ESE 5 7 30 1016 10 16.0934 0 0
9:53 pm 21:53 Partly Cloudy 62 16.7 19 -7.2 19 19 Calm 30.01 1016 10 16.0934 0 0
10:53 pm 22:53 Cloudy 61 16.1 21 -6.1 21 21 Calm 30.01 1016 10 16.0934 0 0
11:53 pm 23:53 Cloudy 61 16.1 21 -6.1 21 21 Calm 30 1016 10 16.0934 0 0

Powered by AerisWeather